Weather History for KOLM - November, 2011

Change the Weather History Date:

Sunday, November 13, 2011

  Actual Average Record
Temperature  
Mean Temperature 47 °F 44 °F  
Max Temperature 50 °F 51 °F 60 °F (1997)
Min Temperature 43 °F 37 °F 13 °F (1955)
Degree Days  
Heating Degree Days 18 21  
Month to date heating degree days 304 257  
Since 1 July heating degree days 1072 1051  
Cooling Degree Days 0 0  
Month to date cooling degree days 0 0  
Year to date cooling degree days 59 106  
Moisture  
Dew Point 42 °F    
Average Humidity 85    
Maximum Humidity 93    
Minimum Humidity 76    
Precipitation  
Precipitation 0.17 in 0.30 in 2.59 in (1998)
Month to date precipitation 1.53 3.47  
Year to date precipitation 38.75 37.38  
Sea Level Pressure  
Sea Level Pressure 29.89 in    
Wind  
Wind Speed 9 mph (SW)    
Max Wind Speed 16 mph    
Max Gust Speed 22 mph    
Visibility 8 miles    
Events Rain    
T = Trace of Precipitation, MM = Missing Value Source: NWS Daily Summary

Daily Weather History Graph

Daily Weather History Graph

Search for Another Location

Airport or City:

Trip Planner

Search our weather history database for the weather conditions in past years. The results will help you decide how hot, cold, wet, or windy it might be!

Date:

Astronomy

Nov. 13, 2011 Rise Set
Actual Time 7:11 AM PST 4:39 PM PST
Civil Twilight 6:38 AM PST 5:12 PM PST
Nautical Twilight 6:02 AM PST 5:49 PM PST
Astronomical Twilight 5:26 AM PST 6:24 PM PST
Moon 6:46 PM PST (11/13) 9:56 AM PST (11/13)
Length of Visible Light 10h 33m
Length of Day
9h 27m
Waning Gibbous, 92% of the Moon is Illuminated
Nov 13
Waning Gibbous
Nov 18
Last Quarter
Nov 24
New
Dec 2
First Quarter
Dec 10
Full

Hourly Weather History & Observations

Time (PST) Temp. Windchill Dew Point Humidity Pressure Visibility Wind Dir Wind Speed Gust Speed Precip Events Conditions
12:35 AM 46.4 °F 42.9 °F 42.8 °F 87% 29.78 in 6.0 mi West 6.9 mph - 0.01 in Rain Light Rain
12:54 AM 46.0 °F 41.4 °F 41.0 °F 83% 29.78 in 10.0 mi SW 9.2 mph 19.6 mph 0.02 in   Overcast
1:54 AM 46.9 °F - 41.0 °F 80% 29.82 in 10.0 mi SW 10.4 mph - N/A   Overcast
2:54 AM 46.0 °F 40.6 °F 39.9 °F 79% 29.83 in 10.0 mi WSW 11.5 mph - N/A   Scattered Clouds
3:54 AM 46.0 °F 40.6 °F 39.9 °F 79% 29.84 in 10.0 mi SW 11.5 mph 18.4 mph N/A   Scattered Clouds
4:54 AM 46.0 °F 40.6 °F 39.9 °F 79% 29.86 in 10.0 mi SW 11.5 mph - N/A   Overcast
5:54 AM 46.9 °F - 39.0 °F 74% 29.87 in 10.0 mi SW 9.2 mph - N/A   Overcast
6:54 AM 46.0 °F 41.0 °F 41.0 °F 83% 29.88 in 10.0 mi SSW 10.4 mph - 0.00 in Rain Light Rain
7:24 AM 44.6 °F 42.2 °F 41.0 °F 87% 29.89 in 6.0 mi SSW 4.6 mph - 0.01 in Rain Light Rain
7:54 AM 45.0 °F 40.6 °F 42.1 °F 90% 29.90 in 10.0 mi SSW 8.1 mph - 0.02 in   Overcast
8:54 AM 46.0 °F 41.0 °F 41.0 °F 83% 29.92 in 10.0 mi SSW 10.4 mph - N/A   Overcast
9:54 AM 46.9 °F - 42.1 °F 83% 29.93 in 9.0 mi SSW 9.2 mph - 0.00 in Rain Light Rain
10:54 AM 48.0 °F - 43.0 °F 83% 29.93 in 5.0 mi SW 12.7 mph 21.9 mph 0.00 in   Haze
11:54 AM 48.9 °F - 42.1 °F 77% 29.92 in 9.0 mi SSW 8.1 mph 19.6 mph 0.00 in Rain Light Rain
12:25 PM 48.2 °F - 44.6 °F 87% 29.92 in 4.0 mi WSW 9.2 mph - 0.01 in Rain Light Rain
12:54 PM 50.0 °F - 43.0 °F 77% 29.92 in 10.0 mi SW 6.9 mph 18.4 mph 0.02 in   Mostly Cloudy
1:15 PM 48.2 °F - 44.6 °F 87% 29.93 in 3.0 mi WSW 6.9 mph - 0.01 in Rain Light Rain
1:54 PM 48.0 °F - 45.0 °F 89% 29.92 in 10.0 mi SW 6.9 mph - 0.03 in   Overcast
2:54 PM 48.0 °F - 44.1 °F 86% 29.91 in 6.0 mi SSW 11.5 mph 17.3 mph 0.01 in Rain Light Rain
3:54 PM 48.0 °F - 44.1 °F 86% 29.90 in 6.0 mi SW 9.2 mph - 0.00 in   Overcast
4:54 PM 46.9 °F - 44.1 °F 90% 29.89 in 6.0 mi SSW 10.4 mph - 0.01 in   Overcast
5:54 PM 46.9 °F - 44.1 °F 90% 29.89 in 6.0 mi SSW 8.1 mph - 0.00 in Rain Light Rain
6:54 PM 46.9 °F - 43.0 °F 86% 29.89 in 10.0 mi SSW 8.1 mph - 0.01 in   Overcast
7:54 PM 46.9 °F - 44.1 °F 90% 29.90 in 7.0 mi SSW 8.1 mph - 0.01 in Rain Light Rain
8:54 PM 45.0 °F 41.2 °F 44.1 °F 97% 29.90 in 10.0 mi SSW 6.9 mph - 0.01 in   Overcast
9:54 PM 46.0 °F 41.9 °F 44.1 °F 93% 29.90 in 10.0 mi South 8.1 mph - 0.02 in Rain Light Rain
10:54 PM 46.0 °F 43.9 °F 44.1 °F 93% 29.91 in 10.0 mi South 4.6 mph - 0.01 in Rain Light Rain
11:54 PM 44.1 °F 39.5 °F 41.0 °F 89% 29.90 in 10.0 mi SSW 8.1 mph - 0.00 in   Scattered Clouds